COSMOS 1598

Satellite information

Favourite Embed

Satellite Type and Status

PAYLOADIN ORBIT

Key statistics

Satellite COSMOS 1598 at a glance.

Uptime

15020

Days in orbit

Revolutions

≈ 13.7

Per day

Orbit

LEO

Low Earth Orbit

Inclination

82.9

Latest

Satellite identification and parameters

Extended collection of information and parameters for COSMOS 1598.

Object identification

Identified? True

Debris? False

Object name: COSMOS 1598

International designator: 1984-100A

Object number (NORAD): 15292

Object ID (CCSDS): 15292

Country: COMMONWEALTH OF INDEPENDENT STATES (CIS)

Current information (Y/N): Y

RCS size: LARGE

Orbital parameters

Period: 104.867 minutes

Inclination: 82.9474 deg

SMA: 7366.346 km

Apoapsis: 1011.328 km

Periapsis: 965.093 km

RAAN: 344.4528 deg

Eccentricy: 0.00313826

Argument of periapsis: 318.2107 deg

Mean anomaly: 52.5657 deg

Mean motion: 13.73170987 rev/day

Mean motion (dot): 0.00000069 rev/day2

B* drag term: 0.000058572797 1/REarth

Two-line elements (TLE)

Creation date: Oct. 28, 2025, 2:18 a.m.

Reference frame: TEME

Reference center: EARTH

Epoch: Oct. 27, 2025, 9:19 a.m. UTC

TLE line 0: 0 COSMOS 1598

TLE line 1: 1 15292U 84100A 25300.38830331 .00000069 00000-0 58573-4 0 9998

TLE line 2: 2 15292 82.9474 344.4528 0031383 318.2107 52.5657 13.73170987 60041

Live tracking on map

Real-time ground track for satellite COSMOS 1598.

In-orbit conjunctions

A list of the most updated potential collisions computed for object COSMOS 1598.

Target Orbit TCA Probability of collision Miss distance Type
THORAD DELTA 1 DEB SSO 2025-01-21 07:48:29 0.0005750302 409.0 (m) DEBRIS
COSMOS 1275 DEB LEO 2024-09-07 10:03:50 0.000299173 509.0 (m) DEBRIS

Associated space launch

Film-return reconnaissance satellite

COSMOS 1598 was lifted into orbit during the mission ‘Soyuz U | Zenit-4MKT 26 (Kosmos 1597)’, on board a Soyuz U space rocket.

The launch took place on Sept. 13, 1984, 10:25 a.m. from 43/4 (43R).

For more information about the launch, click the button.

Launch to space Soyuz U | Zenit-4MKT 26 (Kosmos 1597)
Soyuz U | Zenit-4MKT 26 (Kosmos 1597)

Agency: N/A

Status: Launch Successful

Launch date: Sept. 13, 1984, 10:25 a.m. UTC

Rocket: Soyuz U

Launch pad: 43/4 (43R)

Location: Plesetsk Cosmodrome, Russian Federation

...

Latest news about this satellite

There are no fresh news available about this satellite. Check back as we update our databases every day.


Newsletter sign-up

Weekly statistics, charts and insights to help you stay on top of the space industry.